Location: Góry Miechowskie
(50.3599°N, 20.1803°E)
Time: 16:56:18
(UTC+00:00)

Cosmos 2228 - Pass Details

Date: 25 September 2024
Orbit: 574 x 600 km, 82.5° (Epoch: 12 October)

Event Time Altitude Azimuth Distance (km) Brightness Sun altitude
Exits shadow 02:15:13 10° 323° (NW) 1,948 5.5 -21.7°
Drops below altitude 10° 02:15:14 10° 323° (NW) 1,949 5.5 -21.7°
Sets 02:18:53 0° 355° (N) 2,863 6.7 -21.2°
